Location: Chattahoochee River National Recreation Area
(34.0022°N, 84.2416°W)
Time: 10:09:02
(UTC-04:00)

Daily predictions for brighter satellites

Satellite Brightness Start Highest point End
(mag) Time Altitude Azimuth Time Altitude Azimuth Time Altitude Azimuth
CENTAUR R/B 3.5 20:54:55 10° NNW 21:02:39 53° NE 21:10:43 10° SE
Cosmos 1340 Rocket 2.8 21:00:31 10° S 21:04:26 65° E 21:08:26 10° NNE
Cosmos 389 Rocket 3.7 21:03:57 10° NNW 21:07:16 44° W 21:10:36 10° SSW
Cosmos 2056 Rocket 3.6 21:05:33 10° S 21:10:34 53° ESE 21:15:34 10° NNE
ALOS 2.3 21:06:01 10° SSE 21:10:40 73° ENE 21:15:20 10° N
Cosmos 1371 Rocket 4.0 21:07:33 10° SSW 21:12:52 81° ESE 21:18:10 10° NNE
Cosmos 1733 Rocket 3.6 21:09:22 10° SSE 21:13:28 39° E 21:17:34 10° NNE
Cosmos 1782 4.3 21:13:06 10° NNE 21:16:08 20° ENE 21:19:11 10° SE
Cosmos 1892 2.8 21:12:37 10° S 21:16:20 54° E 21:20:06 10° NNE
NOSS 2-2 (D) 3.6 21:13:06 10° SSW 21:17:09 81° WNW 21:21:39 10° NNE
Atlas Centaur 2 1.4 21:13:58 10° WSW 21:17:29 47° S 21:20:56 10° ESE
Cosmos 2084 4.4 21:14:58 10° SSE 21:17:58 21° ESE 21:20:55 10° ENE
Cosmos 2184 Rocket 4.1 21:14:15 10° S 21:20:15 58° E 21:26:17 10° NNE
Cosmos 1939 Rocket 4.3 21:18:49 10° ESE 21:21:44 21° ENE 21:24:42 10° NNE
H-2A R/B 2.7 21:20:45 10° SSE 21:24:26 89° WSW 21:28:10 10° NNW
SPOT 5 4.5 21:27:03 11° ESE 21:30:42 22° ENE 21:34:41 10° NNE
ISS -2.8 21:27:42 10° SSW 21:30:44 37° SE 21:33:46 10° ENE
NOSS 2-2 (C) 4.3 21:27:56 10° SW 21:31:54 54° NW 21:36:19 10° NNE
SL-27 R/B 3.5 21:30:06 10° N 21:33:22 30° ENE 21:35:39 16° SE
H-2A R/B 3.0 21:38:19 15° SE 21:41:11 32° ENE 21:44:58 10° N
Envisat 3.5 21:42:57 15° SE 21:46:46 43° ENE 21:51:33 10° N
ATLAS 5 CENTAUR R/B 2.5 21:41:37 10° NNW 21:47:45 77° ENE 21:52:58 17° SE
USA 186 3.3 21:45:01 10° SSW 21:47:48 34° W 21:50:46 10° NNW
SEDSat Delta rocket 4.2 21:47:38 10° SSW 21:50:50 20° SSE 21:51:23 20° SSE
Cosmos 2074 Rocket 4.3 21:46:11 10° SSW 21:52:26 72° W 21:58:43 10° N
PSLV R/B 3.5 21:50:25 10° WNW 21:53:50 64° NNE 21:55:41 25° E
ERBS 2.3 21:50:24 10° NW 21:53:52 86° NE 21:55:38 27° SE
COSMOS 2406 3.2 21:48:47 10° NNW 21:54:33 87° ENE 21:59:14 16° SSE
GPS 2-05 Rocket1 2.8 21:54:34 10° WSW 21:58:16 77° SSE 22:00:35 21° E
CZ-4 DEB 3.7 21:57:07 11° S 22:00:03 45° W 22:03:07 10° NNW
OAO 3 Rocket 3.9 21:55:49 10° SW 22:00:14 32° SSE 22:02:07 24° ESE
Cosmos 1610 Rocket 4.5 21:55:37 10° S 22:01:44 89° WSW 22:07:59 10° N
Cosmos 2278 Rocket 2.3 21:56:48 10° S 22:02:18 54° ESE 22:07:49 10° NNE
Abrixas rocket 4.1 22:01:08 10° W 22:03:52 22° SW 22:05:28 16° S
Meteosat 1 Rocket2 4.4 21:58:32 10° WSW 22:04:14 56° S 22:10:23 20° ESE
H-2A R/B 4.2 22:03:38 10° ENE 22:05:02 11° ENE 22:06:31 10° NE
Cosmos 1825 2.4 22:04:36 29° SSE 22:06:09 46° E 22:09:49 10° NNE
Cosmos 1844 3.7 22:00:46 10° SSW 22:06:31 87° WNW 22:12:21 10° NNE
Okean 2 Rocket 3.9 22:05:30 28° ESE 22:06:33 31° E 22:10:27 10° NNE
YAOGAN 6 3.8 22:06:45 23° E 22:06:59 24° ENE 22:09:50 10° NNE
ERS-1 Rocket 3.1 22:02:30 13° S 22:07:04 77° WSW 22:12:07 10° NNW
Cosmos 1844 Rocket 3.2 22:02:26 10° SSW 22:08:01 61° WNW 22:13:37 10° NNE
Cosmos 1408 2.8 22:06:51 32° SE 22:08:06 47° E 22:11:37 10° NNE
Cosmos 407 Rocket 3.5 22:03:28 10° NNW 22:08:44 68° ENE 22:11:46 26° SSE
Nadezhda 3 Rocket 4.1 22:06:21 10° N 22:12:39 61° E 22:16:37 23° SSE
Cosmos 1674 Rocket 3.7 22:08:17 10° N 22:12:44 75° W 22:15:57 18° S
Cosmos 1452 Rocket 3.5 22:08:17 10° SSW 22:13:32 89° SE 22:18:50 10° NNE
Sich 1 Rocket 3.9 22:10:19 10° SSW 22:14:52 69° W 22:19:27 10° N
MetOp-A 4.4 22:13:36 28° SE 22:16:05 50° ENE 22:21:14 10° N
EO 1 Delta rocket 4.1 22:11:05 10° N 22:17:06 89° ESE 22:21:48 11° S
Cosmos 1242 Rocket 4.2 22:14:48 10° NNE 22:17:12 20° ENE 22:17:12 20° ENE
SPOT 1/Viking Rocket 4.4 22:18:19 28° ESE 22:19:54 35° ENE 22:24:35 10° N
Cosmos 1862 3.3 22:19:16 21° S 22:21:56 86° W 22:26:02 10° N
Cosmos 1190 Rocket 4.2 22:17:12 10° NNW 22:22:22 69° WSW 22:25:31 24° S
Okean 3 3.8 22:18:48 10° N 22:22:57 47° E 22:23:41 42° ESE
Cosmos 1782 Rocket 3.5 22:21:12 33° SSE 22:23:02 63° E 22:27:27 10° NNE
Cosmos 2082 Rocket 3.9 22:21:47 10° NNE 22:25:35 18° ENE 22:27:07 16° ENE
USA 234 3.6 22:20:13 10° ENE 22:26:12 38° SE 22:32:09 10° SSW
Dummy Sat-02 4.5 22:25:31 10° N 22:29:17 79° E 22:29:58 57° SSE
Cosmos 2341 Rocket 3.9 22:25:01 13° S 22:30:45 86° E 22:37:03 10° N
CZ-4B R/B 3.5 22:26:17 10° NNE 22:31:04 51° E 22:32:07 43° SE
Cosmos 2297 3.8 22:34:15 36° SSE 22:36:10 51° ESE 22:41:42 10° NNE
Cosmos 1184 Rocket 3.0 22:39:00 63° WSW 22:39:14 67° W 22:42:33 10° N
CZ-4 SHROUD 3.7 22:41:29 56° NNW 22:41:29 56° NNW 22:44:00 10° NNW
Cosmos 1975 Rocket 2.9 22:38:08 10° N 22:42:28 69° E 22:42:49 65° ESE
NOAA 11 4.4 22:45:01 46° ESE 22:46:13 55° ENE 22:51:34 10° N
Meteor 1-27 Rocket 4.1 22:40:57 10° NNW 22:46:24 60° W 22:49:19 27° SSW
Timation 2 Rocket 4.2 22:42:29 10° N 22:48:14 47° ENE 22:49:32 41° E
SL-8 Rocket 3.9 22:45:50 38° SSE 22:48:18 69° E 22:54:31 10° NNE
Cosmos 1606 3.9 22:45:46 10° NNW 22:49:27 40° W 22:50:39 31° SW
PSLV R/B 4.4 22:50:17 40° NW 22:50:17 40° NW 22:52:26 10° NNW
Cosmos 1850 Rocket 4.5 22:45:20 10° N 22:50:25 44° ENE 22:50:56 43° E
Cosmos 676 Rocket 4.3 22:47:38 10° NNW 22:52:46 61° WSW 22:54:26 40° SSW
CENTAUR R/B 4.3 22:46:09 10° NW 22:53:11 34° WSW 22:59:04 15° SSW
Cosmos 1378 Rocket 4.3 22:51:32 10° NNW 22:55:41 47° W 22:56:50 37° SW
Cosmos 1954 Rocket 4.1 22:53:03 10° NNW 22:58:15 72° WSW 22:59:24 53° S
USA 245 4.0 23:00:54 42° NNW 23:00:54 42° NNW 23:03:30 10° NNW
Atlas Centaur 2 3.3 23:02:35 10° WSW 23:03:38 17° WSW 23:03:38 17° WSW
ISS -0.4 23:04:52 10° W 23:07:15 18° NNW 23:09:38 10° NNE
Terra 2.9 23:09:02 33° NE 23:09:02 33° NE 23:12:38 10° N
SPOT 5 4.1 23:06:18 28° SW 23:08:23 40° W 23:13:24 10° NNW
Cosmos 1238 Rocket 4.1 23:05:53 10° NNW 23:08:56 31° W 23:08:57 31° W
Cosmos 1741 Rocket 4.0 23:04:59 10° N 23:10:11 66° ENE 23:10:11 66° ENE
Cosmos 2151 Rocket 3.9 23:13:00 59° NNE 23:13:00 59° NNE 23:16:45 10° N
H-2A R/B 4.4 23:15:27 14° SW 23:17:12 17° W 23:20:05 10° NW
Cosmos 864 Rocket 4.3 23:18:36 68° SSE 23:19:26 83° E 23:25:36 10° N
Meteor 1-20 Rocket 4.5 23:22:25 54° ENE 23:22:25 54° ENE 23:27:07 10° NNE
COSMOS 2487 4.4 23:18:44 10° NW 23:21:04 28° WNW 23:21:04 28° WNW
SL-08 RB Rocket 4.0 23:23:16 66° WNW 23:23:16 66° WNW 23:27:29 10° NNW
ARGOS 3.3 23:23:56 59° SW 23:24:28 62° WSW 23:29:46 10° NNW
Cosmos 2366 rocket 4.0 23:26:54 58° SSW 23:28:11 79° W 23:34:31 10° N
Meteor 1-25 Rocket 4.1 23:31:42 87° E 23:31:42 87° E 23:37:33 10° N
H-2A R/B 2.3 23:44:16 71° NW 23:44:16 71° NW 23:49:05 10° NNW
Meteor 1-18 Rocket 4.4 23:43:11 10° N 23:48:47 77° WNW 23:48:47 77° WNW
Cosmos 1833 Rocket 3.0 23:45:14 10° NNW 23:49:59 62° N 23:49:59 62° N
